Time,TemperatureF,DewpointF,PressureIn,WindDirection,WindDirectionDegrees,WindSpeedMPH,WindSpeedGustMPH,Humidity,HourlyPrecipIn,Conditions,Clouds,dailyrainin,SoftwareType,DateUTC
2013-07-17 00:13:00,82.0,75.0,30.12,WSW,247,0.0,-999.0,80,-99.99,,,0.00,weatherlink.com 1.10,2013-07-17 04:13:00,
2013-07-17 00:28:00,82.0,75.0,30.12,WSW,237,0.0,-999.0,80,-99.99,,,0.00,weatherlink.com 1.10,2013-07-17 04:28:00,
2013-07-17 00:43:00,82.0,76.0,30.12,West,263,0.0,-999.0,81,-99.99,,,0.00,weatherlink.com 1.10,2013-07-17 04:43:00,
2013-07-17 00:58:00,81.8,76.0,30.12,WSW,248,0.0,-999.0,82,-99.99,,,0.00,weatherlink.com 1.10,2013-07-17 04:58:00,
2013-07-17 01:13:00,81.8,76.0,30.11,WSW,246,0.0,-999.0,83,-99.99,,,0.00,weatherlink.com 1.10,2013-07-17 05:13:00,
2013-07-17 01:28:00,81.8,77.0,30.10,WSW,246,0.0,-999.0,84,-99.99,,,0.00,weatherlink.com 1.10,2013-07-17 05:28:00,
2013-07-17 01:43:00,81.6,76.0,30.10,WSW,256,1.0,-999.0,84,-99.99,,,0.00,weatherlink.com 1.10,2013-07-17 05:43:00,
2013-07-17 01:58:00,81.4,75.0,30.11,NW,309,0.0,-999.0,80,-99.99,,,0.00,weatherlink.com 1.10,2013-07-17 05:58:00,
2013-07-17 02:13:00,81.6,73.0,30.11,SW,234,7.0,-999.0,76,-99.99,,,0.00,weatherlink.com 1.10,2013-07-17 06:13:00,
2013-07-17 02:28:00,81.6,75.0,30.10,NW,311,0.0,-999.0,79,-99.99,,,0.00,weatherlink.com 1.10,2013-07-17 06:28:00,
2013-07-17 02:43:00,80.7,73.0,30.11,West,280,0.0,-999.0,77,-99.99,,,0.00,weatherlink.com 1.10,2013-07-17 06:43:00,
2013-07-17 02:58:00,80.5,73.0,30.10,NW,306,0.0,-999.0,78,-99.99,,,0.00,weatherlink.com 1.10,2013-07-17 06:58:00,
2013-07-17 03:13:00,79.9,73.0,30.11,NNW,330,0.0,-999.0,79,-99.99,,,0.00,weatherlink.com 1.10,2013-07-17 07:13:00,
2013-07-17 03:28:00,79.0,73.0,30.11,NW,304,0.0,-999.0,81,-99.99,,,0.00,weatherlink.com 1.10,2013-07-17 07:28:00,
2013-07-17 03:43:00,78.6,73.0,30.11,NNW,337,0.0,-999.0,83,-99.99,,,0.00,weatherlink.com 1.10,2013-07-17 07:43:00,
2013-07-17 03:58:00,78.3,73.0,30.10,North,353,0.0,-999.0,84,-99.99,,,0.00,weatherlink.com 1.10,2013-07-17 07:58:00,
2013-07-17 04:13:00,77.9,73.0,30.08,North,353,0.0,-999.0,85,-99.99,,,0.00,weatherlink.com 1.10,2013-07-17 08:13:00,
2013-07-17 04:28:00,77.9,74.0,30.08,North,353,0.0,-999.0,87,-99.99,,,0.00,weatherlink.com 1.10,2013-07-17 08:28:00,
2013-07-17 04:43:00,77.7,74.0,30.08,NW,325,0.0,-999.0,89,-99.99,,,0.01,weatherlink.com 1.10,2013-07-17 08:43:00,
2013-07-17 04:58:00,77.4,74.0,30.08,NW,320,0.0,-999.0,90,-99.99,,,0.01,weatherlink.com 1.10,2013-07-17 08:58:00,
2013-07-17 05:13:00,77.2,74.0,30.08,NW,320,0.0,-999.0,90,-99.99,,,0.02,weatherlink.com 1.10,2013-07-17 09:13:00,
2013-07-17 05:28:00,77.0,74.0,30.09,NW,320,0.0,-999.0,91,-99.99,,,0.02,weatherlink.com 1.10,2013-07-17 09:28:00,
2013-07-17 05:43:00,77.0,75.0,30.09,NW,320,0.0,-999.0,92,-99.99,,,0.02,weatherlink.com 1.10,2013-07-17 09:43:00,
2013-07-17 05:58:00,77.0,75.0,30.09,NW,320,0.0,-999.0,92,-99.99,,,0.02,weatherlink.com 1.10,2013-07-17 09:58:00,
2013-07-17 06:13:00,76.7,74.0,30.11,North,4,0.0,-999.0,92,-99.99,,,0.02,weatherlink.com 1.10,2013-07-17 10:13:00,
2013-07-17 06:28:00,76.0,74.0,30.12,North,349,0.0,-999.0,92,-99.99,,,0.02,weatherlink.com 1.10,2013-07-17 10:28:00,
2013-07-17 06:43:00,75.6,74.0,30.11,North,349,0.0,-999.0,93,-99.99,,,0.02,weatherlink.com 1.10,2013-07-17 10:43:00,
2013-07-17 06:58:00,75.8,74.0,30.11,North,349,0.0,-999.0,93,-99.99,,,0.02,weatherlink.com 1.10,2013-07-17 10:58:00,
2013-07-17 07:13:00,76.3,75.0,30.12,North,349,0.0,-999.0,94,-99.99,,,0.02,weatherlink.com 1.10,2013-07-17 11:13:00,
2013-07-17 07:28:00,76.7,75.0,30.12,North,349,0.0,-999.0,93,-99.99,,,0.02,weatherlink.com 1.10,2013-07-17 11:28:00,
2013-07-17 07:43:00,76.7,74.0,30.12,NNW,333,0.0,-999.0,92,-99.99,,,0.02,weatherlink.com 1.10,2013-07-17 11:43:00,
2013-07-17 07:58:00,77.0,74.0,30.12,NNW,346,0.0,-999.0,90,-99.99,,,0.02,weatherlink.com 1.10,2013-07-17 11:58:00,
2013-07-17 08:13:00,78.1,75.0,30.12,North,0,0.0,-999.0,89,-99.99,,,0.02,weatherlink.com 1.10,2013-07-17 12:13:00,
2013-07-17 08:28:00,77.9,74.0,30.12,NNW,332,0.0,-999.0,87,-99.99,,,0.02,weatherlink.com 1.10,2013-07-17 12:28:00,
2013-07-17 08:43:00,78.1,74.0,30.12,NNW,342,0.0,-999.0,86,-99.99,,,0.02,weatherlink.com 1.10,2013-07-17 12:43:00,
2013-07-17 08:58:00,79.6,75.0,30.12,NNW,337,0.0,-999.0,86,-99.99,,,0.02,weatherlink.com 1.10,2013-07-17 12:58:00,
2013-07-17 09:13:00,81.4,75.0,30.12,North,0,0.0,-999.0,81,-99.99,,,0.02,weatherlink.com 1.10,2013-07-17 13:13:00,
2013-07-17 09:28:00,82.4,75.0,30.13,NE,55,0.0,-999.0,79,-99.99,,,0.02,weatherlink.com 1.10,2013-07-17 13:28:00,
2013-07-17 09:43:00,82.8,75.0,30.13,NNW,344,0.0,-999.0,78,-99.99,,,0.02,weatherlink.com 1.10,2013-07-17 13:43:00,
2013-07-17 09:58:00,83.0,76.0,30.13,North,356,0.0,-999.0,79,-99.99,,,0.02,weatherlink.com 1.10,2013-07-17 13:58:00,
2013-07-17 10:13:00,83.6,77.0,30.13,North,0,0.0,-999.0,79,-99.99,,,0.02,weatherlink.com 1.10,2013-07-17 14:13:00,
2013-07-17 10:28:00,84.0,76.0,30.13,NNW,343,0.0,-999.0,77,-99.99,,,0.02,weatherlink.com 1.10,2013-07-17 14:28:00,
2013-07-17 10:43:00,84.9,76.0,30.13,NNW,336,0.0,-999.0,74,-99.99,,,0.02,weatherlink.com 1.10,2013-07-17 14:43:00,
2013-07-17 10:58:00,85.7,76.0,30.12,NE,48,0.0,-999.0,73,-99.99,,,0.02,weatherlink.com 1.10,2013-07-17 14:58:00,
2013-07-17 11:13:00,86.7,74.0,30.12,NE,52,0.0,-999.0,67,-99.99,,,0.02,weatherlink.com 1.10,2013-07-17 15:13:00,
2013-07-17 11:28:00,87.6,75.0,30.12,NE,49,0.0,-999.0,67,-99.99,,,0.02,weatherlink.com 1.10,2013-07-17 15:28:00,
2013-07-17 11:43:00,88.4,76.0,30.12,NNE,27,0.0,-999.0,67,-99.99,,,0.02,weatherlink.com 1.10,2013-07-17 15:43:00,
2013-07-17 11:58:00,89.5,77.0,30.11,North,0,0.0,-999.0,66,-99.99,,,0.02,weatherlink.com 1.10,2013-07-17 15:58:00,
2013-07-17 12:13:00,89.0,73.0,30.10,NNE,21,0.0,-999.0,59,-99.99,,,0.02,weatherlink.com 1.10,2013-07-17 16:13:00,
2013-07-17 12:28:00,89.9,73.0,30.10,NE,38,7.0,-999.0,58,-99.99,,,0.02,weatherlink.com 1.10,2013-07-17 16:28:00,
2013-07-17 12:43:00,90.5,73.0,30.11,NE,38,1.0,-999.0,56,-99.99,,,0.02,weatherlink.com 1.10,2013-07-17 16:43:00,
2013-07-17 12:58:00,90.7,72.0,30.11,NNE,31,6.0,-999.0,55,-99.99,,,0.02,weatherlink.com 1.10,2013-07-17 16:58:00,
2013-07-17 13:13:00,91.4,71.0,30.11,East,92,6.0,-999.0,51,-99.99,,,0.02,weatherlink.com 1.10,2013-07-17 17:13:00,
2013-07-17 13:28:00,91.2,71.0,30.11,NE,51,0.0,-999.0,52,-99.99,,,0.02,weatherlink.com 1.10,2013-07-17 17:28:00,
2013-07-17 13:43:00,91.2,70.0,30.11,NE,42,4.0,-999.0,50,-99.99,,,0.02,weatherlink.com 1.10,2013-07-17 17:43:00,
2013-07-17 13:58:00,91.0,70.0,30.10,ENE,65,4.0,-999.0,51,-99.99,,,0.02,weatherlink.com 1.10,2013-07-17 17:58:00,
2013-07-17 14:13:00,91.2,71.0,30.09,NE,37,0.0,-999.0,51,-99.99,,,0.02,weatherlink.com 1.10,2013-07-17 18:13:00,
2013-07-17 14:28:00,91.2,70.0,30.09,NE,45,0.0,-999.0,50,-99.99,,,0.02,weatherlink.com 1.10,2013-07-17 18:28:00,
2013-07-17 14:43:00,91.6,69.0,30.09,NE,48,0.0,-999.0,48,-99.99,,,0.02,weatherlink.com 1.10,2013-07-17 18:43:00,
2013-07-17 14:58:00,91.4,68.0,30.09,NE,52,8.0,-999.0,47,-99.99,,,0.02,weatherlink.com 1.10,2013-07-17 18:58:00,
2013-07-17 15:13:00,91.0,70.0,30.08,ENE,64,0.0,-999.0,51,-99.99,,,0.02,weatherlink.com 1.10,2013-07-17 19:13:00,
2013-07-17 15:28:00,91.4,69.0,30.08,NNE,28,1.0,-999.0,48,-99.99,,,0.02,weatherlink.com 1.10,2013-07-17 19:28:00,
2013-07-17 15:43:00,90.7,77.0,30.07,South,188,4.0,-999.0,64,-99.99,,,0.02,weatherlink.com 1.10,2013-07-17 19:43:00,
2013-07-17 15:58:00,89.5,76.0,30.07,ENE,78,6.0,-999.0,64,-99.99,,,0.02,weatherlink.com 1.10,2013-07-17 19:58:00,
2013-07-17 16:13:00,91.4,71.0,30.07,NNE,20,2.0,-999.0,51,-99.99,,,0.02,weatherlink.com 1.10,2013-07-17 20:13:00,
2013-07-17 16:28:00,90.5,71.0,30.07,NE,49,4.0,-999.0,52,-99.99,,,0.02,weatherlink.com 1.10,2013-07-17 20:28:00,
2013-07-17 16:43:00,88.8,75.0,30.06,ESE,104,6.0,-999.0,63,-99.99,,,0.02,weatherlink.com 1.10,2013-07-17 20:43:00,
2013-07-17 16:58:00,86.5,75.0,30.06,ESE,117,8.0,-999.0,68,-99.99,,,0.02,weatherlink.com 1.10,2013-07-17 20:58:00,
2013-07-17 17:13:00,86.1,74.0,30.06,SE,126,9.0,-999.0,68,-99.99,,,0.02,weatherlink.com 1.10,2013-07-17 21:13:00,
2013-07-17 17:28:00,86.3,73.0,30.05,East,80,0.0,-999.0,65,-99.99,,,0.02,weatherlink.com 1.10,2013-07-17 21:28:00,
2013-07-17 17:43:00,86.7,72.0,30.05,ENE,76,0.0,-999.0,62,-99.99,,,0.02,weatherlink.com 1.10,2013-07-17 21:43:00,
2013-07-17 17:58:00,85.9,72.0,30.05,ENE,68,0.0,-999.0,63,-99.99,,,0.02,weatherlink.com 1.10,2013-07-17 21:58:00,
2013-07-17 18:13:00,85.5,72.0,30.05,East,92,0.0,-999.0,64,-99.99,,,0.02,weatherlink.com 1.10,2013-07-17 22:13:00,
2013-07-17 18:28:00,85.1,74.0,30.04,SE,128,2.0,-999.0,69,-99.99,,,0.02,weatherlink.com 1.10,2013-07-17 22:28:00,
2013-07-17 18:43:00,84.7,73.0,30.04,ESE,123,2.0,-999.0,68,-99.99,,,0.02,weatherlink.com 1.10,2013-07-17 22:43:00,
2013-07-17 18:58:00,84.5,73.0,30.05,SE,128,1.0,-999.0,69,-99.99,,,0.02,weatherlink.com 1.10,2013-07-17 22:58:00,
2013-07-17 19:13:00,84.3,74.0,30.05,SE,134,0.0,-999.0,72,-99.99,,,0.02,weatherlink.com 1.10,2013-07-17 23:13:00,
2013-07-17 19:28:00,84.0,74.0,30.05,SE,128,2.0,-999.0,72,-99.99,,,0.02,weatherlink.com 1.10,2013-07-17 23:28:00,
2013-07-17 19:43:00,83.4,74.0,30.05,ESE,123,0.0,-999.0,73,-99.99,,,0.02,weatherlink.com 1.10,2013-07-17 23:43:00,
2013-07-17 19:58:00,83.2,73.0,30.06,ESE,113,0.0,-999.0,71,-99.99,,,0.02,weatherlink.com 1.10,2013-07-17 23:58:00,
2013-07-17 20:13:00,83.4,74.0,30.06,South,172,0.0,-999.0,74,-99.99,,,0.02,weatherlink.com 1.10,2013-07-18 00:13:00,
2013-07-17 20:28:00,82.6,74.0,30.07,South,172,0.0,-999.0,76,-99.99,,,0.02,weatherlink.com 1.10,2013-07-18 00:28:00,
2013-07-17 20:43:00,82.2,74.0,30.07,SSE,167,0.0,-999.0,77,-99.99,,,0.02,weatherlink.com 1.10,2013-07-18 00:43:00,
2013-07-17 20:58:00,82.0,74.0,30.07,South,169,0.0,-999.0,77,-99.99,,,0.02,weatherlink.com 1.10,2013-07-18 00:58:00,
2013-07-17 21:13:00,81.8,75.0,30.07,SSE,167,0.0,-999.0,79,-99.99,,,0.02,weatherlink.com 1.10,2013-07-18 01:13:00,
2013-07-17 21:28:00,81.6,75.0,30.08,SSE,167,0.0,-999.0,79,-99.99,,,0.02,weatherlink.com 1.10,2013-07-18 01:28:00,
2013-07-17 21:43:00,81.4,74.0,30.08,SSE,167,0.0,-999.0,79,-99.99,,,0.02,weatherlink.com 1.10,2013-07-18 01:43:00,
2013-07-17 21:58:00,81.4,74.0,30.08,SSE,167,0.0,-999.0,79,-99.99,,,0.02,weatherlink.com 1.10,2013-07-18 01:58:00,
2013-07-17 22:13:00,81.2,74.0,30.09,SSE,167,0.0,-999.0,79,-99.99,,,0.02,weatherlink.com 1.10,2013-07-18 02:13:00,
2013-07-17 22:28:00,81.1,74.0,30.08,SSE,167,0.0,-999.0,80,-99.99,,,0.02,weatherlink.com 1.10,2013-07-18 02:28:00,
2013-07-17 22:43:00,80.9,74.0,30.07,SSE,167,0.0,-999.0,80,-99.99,,,0.02,weatherlink.com 1.10,2013-07-18 02:43:00,
2013-07-17 22:58:00,80.5,74.0,30.07,SSE,167,0.0,-999.0,80,-99.99,,,0.02,weatherlink.com 1.10,2013-07-18 02:58:00,
2013-07-17 23:13:00,79.8,74.0,30.08,SSE,167,0.0,-999.0,82,-99.99,,,0.02,weatherlink.com 1.10,2013-07-18 03:13:00,
2013-07-17 23:28:00,78.8,74.0,30.08,SSE,167,0.0,-999.0,84,-99.99,,,0.02,weatherlink.com 1.10,2013-07-18 03:28:00,
2013-07-17 23:43:00,78.1,74.0,30.07,SSE,167,0.0,-999.0,86,-99.99,,,0.02,weatherlink.com 1.10,2013-07-18 03:43:00,
2013-07-17 23:58:00,77.6,74.0,30.07,SSE,167,0.0,-999.0,88,-99.99,,,0.02,weatherlink.com 1.10,2013-07-18 03:58:00,